Location: Doverdale
(52.2833°N, 2.2000°W)
Time: 03:36:58
(UTC+00:00)

Cosmos 2074 Rocket - Pass Details

Date: 29 October 2020
Orbit: 966 x 987 km, 82.9° (Epoch: 27 November)

Event Time Altitude Azimuth Distance (km) Brightness Sun altitude
Rises 18:49:26 0° 353° (N) 3,677 7.1 -19.6°
Reaches altitude 10° 18:52:11 10° 2° (N) 2,723 6.4 -20.0°
Maximum altitude 18:57:52 36° 67° (ENE) 1,496 4.5 -20.8°
Enters shadow 18:58:06 36° 72° (ENE) 1,498 4.5 -20.9°
